{"data":{"norad_id":60997,"epoch":"2026-05-24T15:41:39.490656Z","epoch_age_seconds":111776,"freshness":"FRESH","line1":"1 60997U 24158H   26144.65392929 -.00000571  00000+0  13688-6 0  9998","line2":"2 60997  53.1602 244.6254 0000779  82.9712 277.1394 15.69705833 99883","mean_motion":15.69705833,"eccentricity":7.79e-5,"inclination_deg":53.1602,"raan_deg":244.6254,"arg_perigee_deg":82.9712,"mean_anomaly_deg":277.1394,"bstar":1.3688e-7,"rev_number":9988,"period_min":91.736933744324,"perigee_km":359.21379429005,"apogee_km":360.26355532018,"semimajor_km":6737.8756748051,"source":"CELESTRAK","updated_at":"2026-05-25T13:38:19.323516Z"}}